Location: Kalispell
(48.1967°N, 114.3128°W)
Time: 06:53:43
(UTC-06:00)

Amateur Radio Satellites - All Passes

Search period start: 03 September 2015 06:23
Search period end: 04 September 2015 06:23
Location: Kalispell, 48.1967°N, 114.3128°W

Satellite Date Start Highest point End Downlink Frequencies (MHz)
Time Altitude Azimuth
CUBESAT XI-V 03 Sep 06:25:57 06:30:26 55° 72° (ENE) 06:34:58 437.345
HORYU 2 03 Sep 06:30:43 06:34:57 41° 291° (WNW) 06:39:07 437.375
CUTE-I 03 Sep 06:44:03 06:47:04 16° 86° (E) 06:50:18 437.470
AO-7 03 Sep 06:51:31 06:59:38 59° 297° (WNW) 07:07:40 29.400- 29.500
PHONESAT 2.4 03 Sep 06:51:42 06:54:09 18° 168° (SSE) 06:56:36 2401.200-2431.200
VERMONT LUNAR 03 Sep 06:55:24 06:57:15 15° 192° (SSW) 06:59:06 437.305
JAS-2 03 Sep 07:04:04 07:08:30 17° 311° (NW) 07:12:26 435.910
Cosmos 2499 03 Sep 07:17:30 07:24:43 27° 302° (WNW) 07:31:51 435.465 / 435.565
PCSat 03 Sep 07:18:32 07:19:08 10° 3° (N) 07:19:44 145.827
STRAND 1 03 Sep 07:18:43 07:23:41 55° 70° (ENE) 07:28:41 437.568
PRISM 03 Sep 07:20:15 07:24:01 36° 68° (ENE) 07:27:48 437.425
Cubesat XI-IV 03 Sep 07:38:31 07:43:36 44° 98° (E) 07:48:42 437.490
YUBILEINY 03 Sep 07:42:39 07:50:32 35° 64° (ENE) 07:58:29 435.215
AIST 1 03 Sep 07:50:37 07:53:21 17° 86° (E) 07:56:14
SO-50 03 Sep 07:53:12 07:56:50 20° 26° (NNE) 08:00:29 436.795
CUBESAT XI-V 03 Sep 08:04:58 08:08:16 19° 271° (W) 08:11:28 437.345
BRITE-PL 03 Sep 08:08:42 08:12:51 22° 89° (E) 08:17:15 437.365/2234.400
CUTE-I 03 Sep 08:22:33 08:27:55 83° 287° (WNW) 08:33:15 437.470
GOMX 1 03 Sep 08:24:19 08:27:57 18° 86° (E) 08:31:46 467.674
DOVE 4 03 Sep 08:26:24 08:27:50 11° 81° (E) 08:29:35 437.250
ISS 03 Sep 08:28:19 08:30:08 14° 137° (SE) 08:32:01 145.825
PHONESAT 2.4 03 Sep 08:28:43 08:31:26 22° 184° (S) 08:34:06 2401.200-2431.200
Cosmos 2491 03 Sep 08:37:13 08:44:14 30° 82° (E) 08:51:29 435.465 / 435.565
AO-7 03 Sep 08:45:39 08:50:54 18° 320° (NW) 08:55:53 29.400- 29.500
CUSAT 1 03 Sep 08:48:51 08:49:46 10° 43° (NE) 08:51:10 437.405
PRISM 03 Sep 08:56:15 08:59:34 23° 267° (W) 09:02:49 437.425
STRAND 1 03 Sep 08:59:18 09:03:17 22° 269° (W) 09:07:11 437.568
PCSat 03 Sep 09:01:09 09:04:51 18° 29° (NNE) 09:08:38 145.827
HO-68 03 Sep 09:06:31 09:12:03 24° 89° (E) 09:17:46 435.675
M-CUBED/EXP-1 PRIME 03 Sep 09:16:44 09:18:25 12° 51° (NE) 09:20:16 437.505
Cubesat XI-IV 03 Sep 09:18:55 09:23:35 31° 297° (WNW) 09:28:10 437.490
AIST 1 03 Sep 09:26:32 09:30:40 48° 284° (WNW) 09:34:50
TIGRISAT 03 Sep 09:27:57 09:28:41 10° 55° (NE) 09:29:38 435.000
SO-50 03 Sep 09:33:18 09:38:17 68° 48° (NE) 09:43:08 436.795
DANDE 03 Sep 09:34:36 09:38:27 15° 51° (NE) 09:42:56 436.750
YUBILEINY 03 Sep 09:39:19 09:48:01 63° 267° (W) 09:56:37 435.215
CUTE 1.7 + AOD 2 03 Sep 09:41:34 09:45:19 31° 95° (E) 09:49:06 437.475
ANTELSAT 03 Sep 09:44:09 09:46:45 15° 59° (ENE) 09:49:30 437.575/2403.000
BRITE-PL 03 Sep 09:46:20 09:51:49 67° 287° (WNW) 09:57:28 437.365/2234.400
Cosmos 2504 03 Sep 09:53:22 10:00:46 32° 63° (ENE) 10:07:57 435.465 / 435.565
CANX-2 03 Sep 09:55:49 09:59:56 48° 99° (E) 10:04:01 2200.000
CUBEBUG 2 03 Sep 09:59:32 10:02:18 16° 87° (E) 10:05:11 437.445
GOMX 1 03 Sep 10:01:12 10:06:41 76° 286° (WNW) 10:12:11 467.674
DOVE 4 03 Sep 10:01:15 10:06:36 73° 102° (ESE) 10:11:53 437.250
UWE-3 03 Sep 10:01:17 10:03:08 12° 85° (E) 10:05:11 435.000/436.395/437.385
ISS 03 Sep 10:02:51 10:06:07 72° 153° (SSE) 10:09:22 145.825
CUTE-I 03 Sep 10:04:11 10:07:17 15° 305° (NW) 10:10:12 437.470
PHONESAT 2.4 03 Sep 10:07:03 10:08:37 13° 201° (SSW) 10:10:07 2401.200-2431.200
SEEDS 03 Sep 10:12:13 10:16:20 51° 99° (E) 10:20:25 437.485
CINEMA 3 03 Sep 10:26:32 10:31:31 59° 100° (E) 10:36:20 145.822/145.860
CUSAT 1 03 Sep 10:27:33 10:34:39 39° 66° (ENE) 10:42:18 437.405
COMPASS 1 03 Sep 10:29:24 10:33:32 62° 101° (E) 10:37:38 437.405
Cosmos 2491 03 Sep 10:31:46 10:40:28 71° 283° (WNW) 10:49:12 435.465 / 435.565
UNISAT 6 03 Sep 10:32:57 10:37:16 38° 68° (ENE) 10:41:40 437.425
Oscar 11 03 Sep 10:33:25 10:37:07 27° 94° (E) 10:40:50 145.826/435.025
AAUSAT CUBESAT 2 03 Sep 10:37:05 10:41:12 63° 101° (E) 10:45:17 437.432
AUBIESAT-1 03 Sep 10:39:49 10:44:21 48° 65° (ENE) 10:48:45 437.475
DELFI C3 03 Sep 10:41:40 10:44:42 21° 92° (E) 10:47:48 145.870
PCSat 03 Sep 10:43:58 10:49:23 64° 51° (NE) 10:54:47 145.827
M-CUBED/EXP-1 PRIME 03 Sep 10:47:43 10:52:28 66° 67° (ENE) 10:57:04 437.505
HO-68 03 Sep 10:53:23 11:00:37 78° 290° (WNW) 11:07:48 435.675
TIGRISAT 03 Sep 10:59:57 11:04:35 64° 73° (ENE) 11:09:17 435.000
BUGSAT 1 03 Sep 11:04:48 11:07:36 18° 62° (ENE) 11:10:31 437.445
DUCHIFAT 1 03 Sep 11:08:50 11:12:31 30° 67° (ENE) 11:16:17 145.980
POLYITAN 1 03 Sep 11:09:26 11:13:15 32° 67° (ENE) 11:17:08 437.675
POPSAT HIP 1 03 Sep 11:10:53 11:14:40 32° 67° (ENE) 11:18:33 437.405
SO-50 03 Sep 11:14:41 11:18:24 21° 247° (WSW) 11:21:56 436.795
DANDE 03 Sep 11:15:51 11:23:13 55° 72° (ENE) 11:31:34 436.750
CUTE 1.7 + AOD 2 03 Sep 11:17:31 11:21:12 29° 293° (WNW) 11:24:49 437.475
ANTELSAT 03 Sep 11:18:12 11:22:56 84° 256° (WSW) 11:27:41 437.575/2403.000
ZACube-1 03 Sep 11:22:26 11:26:53 58° 99° (E) 11:31:13 437.345
FUNcube-1 03 Sep 11:26:28 11:30:57 61° 100° (E) 11:35:17 145.935
BRITE-PL 03 Sep 11:26:50 11:29:29 13° 304° (NW) 11:31:57 437.365/2234.400
NANOSAT C BR1 03 Sep 11:26:59 11:31:02 46° 70° (ENE) 11:35:10 145.865
QB50P2 03 Sep 11:28:14 11:32:21 49° 71° (ENE) 11:36:32 145.880/145.840
CANX-2 03 Sep 11:32:25 11:35:33 20° 297° (WNW) 11:38:35 2200.000
VELOX 1 03 Sep 11:32:51 11:34:23 12° 86° (E) 11:36:10 145.980
CUBEBUG 2 03 Sep 11:34:52 11:39:33 68° 287° (WNW) 11:44:05 437.445
UWE-3 03 Sep 11:35:45 11:40:24 82° 285° (WNW) 11:44:52 435.000/436.395/437.385
YUBILEINY 03 Sep 11:38:57 11:43:10 14° 288° (WNW) 11:46:49 435.215
ISS 03 Sep 11:39:30 11:42:40 45° 353° (N) 11:45:50 145.825
DOVE 4 03 Sep 11:39:56 11:43:49 20° 300° (WNW) 11:47:33 437.250
GOMX 1 03 Sep 11:40:57 11:44:01 15° 303° (WNW) 11:46:54 467.674
QB50P1 03 Sep 11:41:43 11:45:56 66° 73° (ENE) 11:50:13 145.935-145.965
HUMSAT D 03 Sep 11:43:49 11:47:48 38° 97° (E) 11:51:43 437.325/437.525
Cosmos 2504 03 Sep 11:45:18 11:53:46 68° 267° (W) 12:01:40 435.465 / 435.565
SEEDS 03 Sep 11:48:49 11:51:47 19° 297° (WNW) 11:54:39 437.485
CINEMA 3 03 Sep 12:04:26 12:08:18 22° 298° (WNW) 12:11:59 145.822/145.860
DX 1 03 Sep 12:06:06 12:10:10 36° 97° (E) 12:14:15 434.975-435.025
COMPASS 1 03 Sep 12:06:11 12:08:47 16° 298° (WNW) 12:11:13 437.405
Oscar 11 03 Sep 12:09:25 12:13:21 34° 292° (WNW) 12:17:13 145.826/435.025
CUSAT 1 03 Sep 12:09:54 12:17:34 60° 265° (W) 12:25:36 437.405
UNISAT 6 03 Sep 12:10:01 12:14:08 29° 267° (W) 12:18:13 437.425
AAUSAT CUBESAT 2 03 Sep 12:13:51 12:16:22 15° 298° (WNW) 12:18:45 437.432
UKube-1 03 Sep 12:14:04 12:18:10 39° 98° (E) 12:22:16 .
AUBIESAT-1 03 Sep 12:15:20 12:19:13 24° 262° (W) 12:22:55 437.475
DELFI C3 03 Sep 12:16:11 12:19:55 38° 290° (WNW) 12:23:36 145.870
M-CUBED/EXP-1 PRIME 03 Sep 12:24:14 12:27:36 18° 265° (W) 12:30:48 437.505
PCSat 03 Sep 12:28:06 12:32:25 24° 250° (WSW) 12:36:37 145.827
GONETS M04 03 Sep 12:30:50 12:36:36 19° 51° (NE) 12:42:43
CUBEBUG 1 03 Sep 12:31:34 12:35:24 29° 94° (E) 12:39:18 437.445
Cosmos 2491 03 Sep 12:33:32 12:39:23 18° 309° (NW) 12:44:54 435.465 / 435.565
50 SAT 03 Sep 12:33:59 12:37:48 56° 100° (E) 12:41:34 437.505
ESTCUBE 1 03 Sep 12:37:27 12:41:41 39° 97° (E) 12:45:56 437.505/2401.250
TIGRISAT 03 Sep 12:38:38 12:41:49 17° 272° (W) 12:44:50 435.000
BUGSAT 1 03 Sep 12:38:43 12:42:43 51° 260° (W) 12:46:47 437.445
Oscar 19 03 Sep 12:39:08 12:42:34 19° 58° (ENE) 12:46:08 437.125/150
AISAT 03 Sep 12:39:49 12:44:14 55° 100° (E) 12:48:39 437.250
HO-68 03 Sep 12:42:20 12:47:23 20° 310° (NW) 12:52:14 435.675
DUCHIFAT 1 03 Sep 12:44:30 12:48:17 30° 265° (W) 12:52:04 145.980
POLYITAN 1 03 Sep 12:45:24 12:49:10 29° 266° (W) 12:52:55 437.675
POPSAT HIP 1 03 Sep 12:46:50 12:50:34 28° 266° (W) 12:54:17 437.405
ANTELSAT 03 Sep 12:59:02 13:00:32 11° 276° (W) 13:01:46 437.575/2403.000
DANDE 03 Sep 12:59:13 13:06:19 42° 269° (W) 13:14:02 436.750
ZACube-1 03 Sep 12:59:38 13:02:50 19° 298° (WNW) 13:05:53 437.345
FUNcube-1 03 Sep 13:03:45 13:06:49 18° 299° (WNW) 13:09:44 145.935
NANOSAT C BR1 03 Sep 13:03:56 13:07:08 20° 269° (W) 13:10:16 145.865
QB50P2 03 Sep 13:05:28 13:08:33 19° 270° (W) 13:11:33 145.880/145.840
VELOX 1 03 Sep 13:07:07 13:11:37 85° 288° (WNW) 13:16:06 145.980
TISAT 1 03 Sep 13:09:10 13:11:17 14° 87° (E) 13:13:34 437.305
CUBEBUG 2 03 Sep 13:14:13 13:15:22 11° 305° (NW) 13:16:19 437.445
UWE-3 03 Sep 13:14:13 13:16:11 12° 303° (WNW) 13:17:58 435.000/436.395/437.385
ISS 03 Sep 13:16:11 13:19:24 55° 13° (NNE) 13:22:37 145.825
Cosmos 2499 03 Sep 13:19:10 13:20:55 11° 39° (NE) 13:23:10 435.465 / 435.565
HUMSAT D 03 Sep 13:19:53 13:23:21 24° 295° (WNW) 13:26:41 437.325/437.525
QB50P1 03 Sep 13:19:56 13:22:19 14° 272° (W) 13:24:33 145.935-145.965
Cosmos 2504 03 Sep 13:39:54 13:44:26 15° 287° (WNW) 13:48:22 435.465 / 435.565
DX 1 03 Sep 13:42:34 13:46:18 27° 295° (WNW) 13:49:59 434.975-435.025
Gurwin Techsat 1B 03 Sep 13:43:12 13:47:11 23° 60° (ENE) 13:51:17 435.225
ITAMSAT 1 03 Sep 13:44:24 13:47:55 19° 58° (ENE) 13:51:34 435.822/435.867
JAS-2 03 Sep 13:48:49 13:54:29 23° 54° (NE) 14:00:17 435.910
UKube-1 03 Sep 13:50:32 13:54:08 25° 296° (WNW) 13:57:38 .
SPROUT 03 Sep 13:51:11 13:55:30 61° 100° (E) 13:59:49 437.525
CUSAT 1 03 Sep 13:54:59 13:58:59 14° 282° (WNW) 14:02:33 437.405
CUBEBUG 1 03 Sep 14:07:47 14:11:48 34° 293° (WNW) 14:15:46 437.445
50 SAT 03 Sep 14:09:36 14:11:56 15° 298° (WNW) 14:14:08 437.505
SWISSCUBE 03 Sep 14:10:56 14:12:54 13° 86° (E) 14:15:07 437.505
AO-7 03 Sep 14:12:32 14:18:11 21° 44° (NE) 14:24:03 29.400- 29.500
ESTCUBE 1 03 Sep 14:14:38 14:18:24 26° 295° (WNW) 14:22:07 437.505/2401.250
Oscar 19 03 Sep 14:16:11 14:21:22 78° 256° (WSW) 14:26:37 437.125/150
AISAT 03 Sep 14:17:09 14:20:27 20° 298° (WNW) 14:23:41 437.250
GONETS M04 03 Sep 14:26:36 14:35:27 73° 78° (ENE) 14:44:17
RS-15 03 Sep 14:40:42 14:45:05 14° 95° (E) 14:50:25 29.354- 29.394
TISAT 1 03 Sep 14:43:17 14:47:34 68° 287° (WNW) 14:51:48 437.305
VELOX 1 03 Sep 14:45:34 14:47:31 12° 303° (WNW) 14:49:18 145.980
ITUPSAT 1 03 Sep 14:49:31 14:53:29 26° 93° (E) 14:57:31 437.325
ISS 03 Sep 14:52:41 14:55:47 41° 213° (SSW) 14:58:51 145.825
Cosmos 2499 03 Sep 15:09:12 15:17:19 42° 67° (ENE) 15:25:02 435.465 / 435.565
BEESAT 03 Sep 15:20:21 15:25:00 50° 100° (E) 15:29:38 436.000
Gurwin Techsat 1B 03 Sep 15:21:29 15:26:46 64° 258° (WSW) 15:32:04 435.225
ITAMSAT 1 03 Sep 15:21:44 15:26:55 74° 257° (WSW) 15:32:07 435.822/435.867
SPROUT 03 Sep 15:28:16 15:31:10 17° 298° (WNW) 15:33:57 437.525
JAS-2 03 Sep 15:30:44 15:38:33 81° 73° (ENE) 15:46:23 435.910
BEESAT 3 03 Sep 15:36:52 15:40:54 69° 125° (SE) 15:44:59 437.485
KKS-1 03 Sep 15:43:09 15:45:54 16° 89° (E) 15:48:49 437.445
SWISSCUBE 03 Sep 15:46:43 15:51:31 86° 286° (WNW) 15:56:17 437.505
BEESAT 2 03 Sep 15:53:32 15:57:37 76° 126° (SE) 16:01:45 435.950
HORYU 2 03 Sep 15:55:58 16:00:01 35° 67° (ENE) 16:04:08 437.375
Oscar 19 03 Sep 15:59:57 16:01:44 11° 277° (W) 16:03:12 437.125/150
AO-7 03 Sep 16:01:27 16:09:42 70° 66° (ENE) 16:17:59 29.400- 29.500
GONETS M04 03 Sep 16:24:20 16:31:37 29° 278° (W) 16:38:41
ITUPSAT 1 03 Sep 16:27:02 16:31:33 42° 292° (WNW) 16:36:01 437.325
RS-15 03 Sep 16:44:31 16:55:06 60° 117° (ESE) 17:06:14 29.354- 29.394
AIST 2 03 Sep 16:50:59 16:55:11 63° 124° (SE) 16:59:24 435.215
STARS 03 Sep 16:52:00 16:56:18 45° 99° (E) 17:00:35 437.465
BEESAT 03 Sep 16:58:46 17:02:33 23° 298° (WNW) 17:06:15 436.000
Cosmos 2499 03 Sep 17:02:27 17:10:47 52° 270° (W) 17:18:30 435.465 / 435.565
ITAMSAT 1 03 Sep 17:06:14 17:07:28 11° 277° (W) 17:08:22 435.822/435.867
BEESAT 3 03 Sep 17:16:01 17:19:15 21° 326° (NW) 17:22:25 437.485
JAS-2 03 Sep 17:18:01 17:24:24 26° 273° (W) 17:30:36 435.910
KKS-1 03 Sep 17:18:32 17:23:00 62° 288° (WNW) 17:27:25 437.445
SWISSCUBE 03 Sep 17:26:16 17:28:42 14° 303° (WNW) 17:30:59 437.505
Cubesat XI-IV 03 Sep 17:26:36 17:30:02 18° 57° (ENE) 17:33:37 437.490
HORYU 2 03 Sep 17:32:46 17:36:42 29° 265° (W) 17:40:38 437.375
BEESAT 2 03 Sep 17:32:58 17:36:08 20° 327° (NNW) 17:39:15 435.950
MOZHAYETS 4 03 Sep 17:53:24 17:57:53 52° 99° (E) 18:02:20
AO-7 03 Sep 17:55:55 18:03:13 32° 267° (W) 18:10:21 29.400- 29.500
CUTE-I 03 Sep 18:08:52 18:13:40 37° 65° (ENE) 18:18:32 437.470
CUBESAT XI-V 03 Sep 18:21:27 18:22:25 11° 84° (E) 18:23:38 437.345
STARS 03 Sep 18:28:58 18:32:30 23° 297° (WNW) 18:35:57 437.465
AIST 2 03 Sep 18:30:35 18:34:06 24° 324° (NW) 18:37:35 435.215
O/OREOS (USA 219) 03 Sep 18:37:13 18:40:24 19° 102° (ESE) 18:43:45 437.305
Cosmos 2491 03 Sep 18:41:42 18:47:24 19° 51° (NE) 18:53:28 435.465 / 435.565
RS-15 03 Sep 18:57:01 19:07:53 55° 324° (NW) 19:19:14 29.354- 29.394
Cosmos 2499 03 Sep 19:00:13 19:01:55 10° 292° (WNW) 19:02:59 435.465 / 435.565
Cubesat XI-IV 03 Sep 19:04:13 19:09:33 82° 254° (WSW) 19:14:56 437.490
BRITE-PL 03 Sep 19:23:30 19:27:24 29° 64° (ENE) 19:31:39 437.365/2234.400
STRAND 1 03 Sep 19:27:04 19:29:34 14° 86° (E) 19:32:19 437.568
AIST 1 03 Sep 19:29:32 19:33:50 58° 77° (ENE) 19:38:08
MOZHAYETS 4 03 Sep 19:31:20 19:34:48 21° 297° (WNW) 19:38:09
DOVE 4 03 Sep 19:34:50 19:37:48 17° 58° (ENE) 19:41:02 437.250
GOMX 1 03 Sep 19:36:05 19:39:52 25° 62° (ENE) 19:43:58 467.674
HO-68 03 Sep 19:39:22 19:45:12 29° 55° (NE) 19:51:11 435.675
CUTE-I 03 Sep 19:48:52 19:53:46 36° 264° (W) 19:58:39 437.470
CUBESAT XI-V 03 Sep 19:56:00 20:00:41 85° 106° (ESE) 20:05:22 437.345
CINEMA 3 03 Sep 19:57:29 19:59:39 13° 56° (NE) 20:02:01 145.822/145.860
O/OREOS (USA 219) 03 Sep 20:15:00 20:19:28 55° 300° (WNW) 20:24:01 437.305
PRISM 03 Sep 20:33:47 20:37:35 35° 97° (E) 20:41:24 437.425
Cosmos 2491 03 Sep 20:37:29 20:46:15 73° 77° (ENE) 20:55:02 435.465 / 435.565
CUTE 1.7 + AOD 2 03 Sep 20:37:42 20:41:35 36° 69° (ENE) 20:45:32 437.475
Cubesat XI-IV 03 Sep 20:48:15 20:50:37 12° 276° (W) 20:52:42 437.490
YUBILEINY 03 Sep 20:48:57 20:56:26 34° 84° (E) 21:04:08 435.215
ZACube-1 03 Sep 20:49:08 20:50:17 11° 56° (ENE) 20:51:38 437.345
CANX-2 03 Sep 20:51:54 20:56:05 55° 72° (ENE) 21:00:18 2200.000
FUNcube-1 03 Sep 20:52:39 20:54:05 12° 57° (ENE) 20:55:42 145.935
CUBEBUG 2 03 Sep 21:00:49 21:04:22 22° 63° (ENE) 21:08:05 437.445
UWE-3 03 Sep 21:01:20 21:04:24 18° 61° (ENE) 21:07:38 435.000/436.395/437.385
BRITE-PL 03 Sep 21:01:36 21:05:49 38° 265° (W) 21:10:22 437.365/2234.400
STRAND 1 03 Sep 21:04:25 21:09:35 87° 282° (WNW) 21:14:42 437.568
SEEDS 03 Sep 21:07:23 21:11:33 57° 73° (ENE) 21:15:43 437.485
AIST 1 03 Sep 21:08:26 21:11:04 15° 275° (W) 21:13:33
DOVE 4 03 Sep 21:10:08 21:14:54 81° 258° (WSW) 21:20:00 437.250
GOMX 1 03 Sep 21:13:11 21:17:42 48° 263° (W) 21:22:35 467.674
RS-15 03 Sep 21:13:16 21:23:24 35° 357° (N) 21:33:57 29.354- 29.394
COMPASS 1 03 Sep 21:23:40 21:27:50 67° 74° (ENE) 21:32:01 437.405
HO-68 03 Sep 21:25:14 21:32:25 73° 256° (WSW) 21:39:38 435.675
AAUSAT CUBESAT 2 03 Sep 21:30:53 21:35:02 68° 74° (ENE) 21:39:13 437.432
CINEMA 3 03 Sep 21:31:14 21:36:02 78° 75° (ENE) 21:41:03 145.822/145.860
Oscar 11 03 Sep 21:31:31 21:35:25 34° 68° (ENE) 21:39:23 145.826/435.025
DELFI C3 03 Sep 21:32:13 21:35:20 22° 65° (ENE) 21:38:32 145.870
CUBESAT XI-V 03 Sep 21:34:57 21:37:32 15° 301° (WNW) 21:39:58 437.345
O/OREOS (USA 219) 03 Sep 21:58:40 22:00:03 11° 323° (NW) 22:01:17 437.305
AISAT 03 Sep 22:08:09 22:09:21 11° 56° (NE) 22:10:48 437.250
PRISM 03 Sep 22:09:29 22:12:53 25° 295° (WNW) 22:16:13 437.425
CUTE 1.7 + AOD 2 03 Sep 22:13:59 22:17:36 25° 267° (W) 22:21:09 437.475
BEESAT 3 03 Sep 22:14:37 22:17:52 23° 35° (NE) 22:21:08 437.485
ZACube-1 03 Sep 22:21:17 22:25:51 71° 74° (ENE) 22:30:29 437.345
FUNcube-1 03 Sep 22:25:05 22:29:39 75° 74° (ENE) 22:34:16 145.935
CANX-2 03 Sep 22:29:31 22:32:23 17° 271° (W) 22:35:09 2200.000
Cosmos 2504 03 Sep 22:29:45 22:35:22 21° 77° (ENE) 22:41:26 435.465 / 435.565
BEESAT 2 03 Sep 22:31:43 22:35:07 25° 37° (NE) 22:38:31 435.950
VELOX 1 03 Sep 22:33:23 22:36:18 18° 61° (ENE) 22:39:21 145.980
Cosmos 2491 03 Sep 22:35:14 22:42:27 29° 278° (W) 22:49:27 435.465 / 435.565
UWE-3 03 Sep 22:35:50 22:40:28 67° 259° (W) 22:45:10 435.000/436.395/437.385
CUBEBUG 2 03 Sep 22:36:06 22:40:43 54° 261° (W) 22:45:26 437.445
HUMSAT D 03 Sep 22:38:34 22:42:41 44° 70° (ENE) 22:46:50 437.325/437.525
YUBILEINY 03 Sep 22:44:06 22:52:49 63° 285° (WNW) 23:01:37 435.215
SEEDS 03 Sep 22:45:02 22:47:44 16° 271° (W) 22:50:18 437.485
STRAND 1 03 Sep 22:45:09 22:48:06 15° 304° (NW) 22:50:54 437.568
TIGRISAT 03 Sep 22:51:16 22:51:46 10° 83° (E) 22:52:32 435.000
DOVE 4 03 Sep 22:52:12 22:53:41 11° 279° (W) 22:54:54 437.250
COMPASS 1 03 Sep 23:01:48 23:04:00 13° 273° (W) 23:06:02 437.405
DX 1 03 Sep 23:04:58 23:09:10 50° 70° (ENE) 23:13:25 434.975-435.025
DELFI C3 03 Sep 23:06:24 23:10:12 38° 263° (W) 23:14:00 145.870
Oscar 11 03 Sep 23:07:53 23:11:39 28° 266° (W) 23:15:24 145.826/435.025
ANTELSAT 03 Sep 23:07:54 23:10:41 16° 87° (E) 23:13:36 437.575/2403.000
AAUSAT CUBESAT 2 03 Sep 23:09:02 23:11:09 13° 273° (W) 23:13:06 437.432
CINEMA 3 03 Sep 23:11:04 23:13:55 15° 275° (W) 23:16:38 145.822/145.860
UKube-1 03 Sep 23:12:05 23:16:17 54° 71° (ENE) 23:20:32 .
SPROUT 03 Sep 23:16:49 23:17:26 10° 57° (ENE) 23:18:16 437.525
HO-68 03 Sep 23:17:34 23:21:35 15° 277° (W) 23:25:12 435.675
50 SAT 03 Sep 23:20:26 23:24:16 52° 72° (ENE) 23:28:08 437.505
RS-15 03 Sep 23:28:16 23:39:20 47° 29° (NNE) 23:50:56 29.354- 29.394
CUBEBUG 1 03 Sep 23:31:04 23:35:02 37° 68° (ENE) 23:39:06 437.445
AIST 2 03 Sep 23:31:21 23:34:44 23° 35° (NE) 23:38:08 435.215
CUSAT 1 03 Sep 23:39:58 23:43:16 20° 81° (E) 23:47:24 437.405
ESTCUBE 1 03 Sep 23:40:24 23:44:46 56° 72° (ENE) 23:49:11 437.505/2401.250
AISAT 03 Sep 23:40:48 23:45:13 77° 74° (ENE) 23:49:40 437.250
BEESAT 3 03 Sep 23:52:08 23:56:08 60° 236° (WSW) 00:00:03 437.485
AUBIESAT-1 03 Sep 23:52:44 23:55:12 17° 95° (E) 23:57:39 437.475
UNISAT 6 03 Sep 23:57:43 00:02:10 48° 99° (E) 00:06:29 437.425
ZACube-1 04 Sep 00:00:02 00:02:46 15° 273° (W) 00:05:20 437.345
M-CUBED/EXP-1 PRIME 04 Sep 00:01:00 00:04:14 24° 98° (E) 00:07:17 437.505
FUNcube-1 04 Sep 00:04:01 00:06:34 14° 274° (W) 00:08:56 145.935
TISAT 1 04 Sep 00:04:37 00:07:24 18° 62° (ENE) 00:10:18 437.305
VELOX 1 04 Sep 00:08:05 00:12:27 61° 259° (W) 00:16:51 145.980
BEESAT 2 04 Sep 00:09:26 00:13:26 54° 237° (WSW) 00:17:20 435.950
HUMSAT D 04 Sep 00:15:15 00:18:37 21° 269° (W) 00:21:56 437.325/437.525
BUGSAT 1 04 Sep 00:17:51 00:20:47 18° 90° (E) 00:23:50 437.445
Cosmos 2504 04 Sep 00:18:07 00:26:26 86° 98° (E) 00:35:08 435.465 / 435.565
TIGRISAT 04 Sep 00:24:46 00:29:23 85° 104° (ESE) 00:33:50 435.000
DUCHIFAT 1 04 Sep 00:25:02 00:28:54 32° 96° (E) 00:32:47 145.980
POLYITAN 1 04 Sep 00:26:33 00:30:32 36° 96° (E) 00:34:31 437.675
POPSAT HIP 1 04 Sep 00:27:43 00:31:42 36° 96° (E) 00:35:41 437.405
DANDE 04 Sep 00:32:36 00:36:13 33° 88° (E) 00:41:00 436.750
DX 1 04 Sep 00:42:35 00:45:44 19° 269° (W) 00:48:47 434.975-435.025
ANTELSAT 04 Sep 00:43:26 00:47:59 62° 288° (WNW) 00:52:22 437.575/2403.000
NANOSAT C BR1 04 Sep 00:43:40 00:47:53 51° 100° (E) 00:52:04 145.865
QB50P2 04 Sep 00:45:28 00:49:44 56° 100° (E) 00:53:57 145.880/145.840
YUBILEINY 04 Sep 00:46:32 00:52:00 17° 312° (NW) 00:57:04 435.215
SPROUT 04 Sep 00:48:30 00:52:47 74° 74° (ENE) 00:57:08 437.525
UKube-1 04 Sep 00:49:48 00:52:47 18° 270° (W) 00:55:39 .
BEESAT 04 Sep 00:55:29 00:57:48 14° 57° (ENE) 01:00:17 436.000
50 SAT 04 Sep 00:56:38 00:59:07 16° 271° (W) 01:01:28 437.505
QB50P1 04 Sep 00:58:48 01:03:08 75° 103° (ESE) 01:07:25 145.935-145.965
CUBEBUG 1 04 Sep 01:07:54 01:11:31 25° 267° (W) 01:15:07 437.445
AIST 2 04 Sep 01:09:31 01:13:41 64° 236° (SW) 01:17:46 435.215
ESTCUBE 1 04 Sep 01:18:55 01:22:02 18° 271° (W) 01:25:02 437.505/2401.250
AISAT 04 Sep 01:20:16 01:22:25 13° 273° (W) 01:24:22 437.250
SWISSCUBE 04 Sep 01:20:18 01:24:00 24° 63° (ENE) 01:27:48 437.505
CUSAT 1 04 Sep 01:20:34 01:25:00 57° 288° (WNW) 01:31:00 437.405
AUBIESAT-1 04 Sep 01:26:30 01:30:17 45° 296° (WNW) 01:33:46 437.475
PCSat 04 Sep 01:30:05 01:34:27 26° 111° (ESE) 01:38:57 145.827
SO-50 04 Sep 01:30:49 01:35:33 58° 123° (ESE) 01:40:26 436.795
UNISAT 6 04 Sep 01:35:03 01:38:39 22° 297° (WNW) 01:42:05 437.425
M-CUBED/EXP-1 PRIME 04 Sep 01:35:31 01:39:07 32° 299° (WNW) 01:42:26 437.505
TISAT 1 04 Sep 01:38:37 01:42:46 57° 259° (W) 01:46:59 437.305
GONETS M04 04 Sep 01:40:17 01:44:55 16° 74° (ENE) 01:50:01
RS-15 04 Sep 01:41:11 01:52:58 79° 236° (SW) 02:05:10 29.354- 29.394
BUGSAT 1 04 Sep 01:52:24 01:56:33 50° 289° (WNW) 02:00:41 437.445
ITUPSAT 1 04 Sep 01:59:37 02:04:09 45° 69° (ENE) 02:08:43 437.325
DUCHIFAT 1 04 Sep 02:00:55 02:04:38 29° 294° (WNW) 02:08:18 145.980
POLYITAN 1 04 Sep 02:02:40 02:06:19 27° 294° (WNW) 02:09:53 437.675
TIGRISAT 04 Sep 02:03:01 02:05:30 14° 302° (WNW) 02:07:47 435.000
POPSAT HIP 1 04 Sep 02:03:47 02:07:27 26° 294° (WNW) 02:11:01 437.405
Cosmos 2504 04 Sep 02:13:02 02:19:55 26° 302° (WNW) 02:26:45 435.465 / 435.565
DANDE 04 Sep 02:15:45 02:19:28 28° 298° (WNW) 02:24:11 436.750
NANOSAT C BR1 04 Sep 02:20:14 02:23:22 20° 297° (WNW) 02:26:24 145.865
QB50P2 04 Sep 02:22:14 02:25:14 18° 298° (WNW) 02:28:07 145.880/145.840
Oscar 19 04 Sep 02:24:26 02:28:54 29° 93° (E) 02:33:24 437.125/150
SPROUT 04 Sep 02:27:23 02:29:28 13° 274° (W) 02:31:20 437.525
BEESAT 04 Sep 02:30:12 02:34:59 87° 74° (ENE) 02:39:47 436.000
QB50P1 04 Sep 02:36:04 02:38:28 14° 300° (WNW) 02:40:44 145.935-145.965
KKS-1 04 Sep 02:44:32 02:48:04 24° 64° (ENE) 02:51:42 437.445
SWISSCUBE 04 Sep 02:56:57 03:01:36 50° 260° (W) 03:06:15 437.505
O/OREOS (USA 219) 04 Sep 03:04:09 03:06:19 13° 40° (NE) 03:08:37 437.305
CUSAT 1 04 Sep 03:08:00 03:09:36 11° 316° (NW) 03:11:01 437.405
SO-50 04 Sep 03:12:04 03:16:26 31° 324° (NW) 03:20:50 436.795
PCSat 04 Sep 03:12:13 03:17:34 58° 309° (NW) 03:22:57 145.827
MOZHAYETS 4 04 Sep 03:25:21 03:26:42 11° 57° (ENE) 03:28:15
ITAMSAT 1 04 Sep 03:31:11 03:35:40 30° 94° (E) 03:40:14 435.822/435.867
GONETS M04 04 Sep 03:31:42 03:40:19 73° 95° (E) 03:49:02
Gurwin Techsat 1B 04 Sep 03:34:02 03:39:00 39° 96° (E) 03:43:58 435.225
ITUPSAT 1 04 Sep 03:38:20 03:42:16 24° 268° (W) 03:46:07 437.325
Cosmos 2499 04 Sep 03:50:13 03:57:18 31° 82° (E) 04:04:46 435.465 / 435.565
STARS 04 Sep 03:52:04 03:56:26 63° 73° (ENE) 04:00:51 437.465
RS-15 04 Sep 03:55:01 04:03:54 24° 258° (WSW) 04:12:24 29.354- 29.394
AO-7 04 Sep 04:00:41 04:05:19 16° 84° (E) 04:10:24 29.400- 29.500
Oscar 19 04 Sep 04:03:29 04:08:27 44° 292° (WNW) 04:13:21 437.125/150
BEESAT 04 Sep 04:11:23 04:13:35 13° 274° (W) 04:15:32 436.000
VERMONT LUNAR 04 Sep 04:12:50 04:14:45 16° 169° (S) 04:16:42 437.305
KKS-1 04 Sep 04:20:13 04:24:29 43° 262° (W) 04:28:47 437.445
JAS-2 04 Sep 04:22:46 04:29:36 54° 97° (E) 04:35:38 435.910
O/OREOS (USA 219) 04 Sep 04:42:04 04:46:41 70° 61° (ENE) 04:51:16 437.305
SO-50 04 Sep 04:56:04 04:58:31 13° 348° (NNW) 05:00:56 436.795
PCSat 04 Sep 04:58:33 05:02:11 17° 333° (NNW) 05:05:44 145.827
MOZHAYETS 4 04 Sep 04:58:36 05:03:12 75° 74° (ENE) 05:07:48
ITAMSAT 1 04 Sep 05:10:26 05:15:20 43° 293° (WNW) 05:20:12 435.822/435.867
Gurwin Techsat 1B 04 Sep 05:14:09 05:18:56 34° 295° (WNW) 05:23:40 435.225
HORYU 2 04 Sep 05:19:37 05:23:51 40° 98° (E) 05:28:03 437.375
CUBESAT XI-V 04 Sep 05:27:30 05:30:26 17° 61° (ENE) 05:33:30 437.345
STARS 04 Sep 05:30:35 05:33:22 16° 271° (W) 05:36:00 437.465
GONETS M04 04 Sep 05:30:36 05:38:07 30° 299° (WNW) 05:45:32
Cosmos 2499 04 Sep 05:41:10 05:49:49 72° 283° (WNW) 05:58:45 435.465 / 435.565
VERMONT LUNAR 04 Sep 05:48:25 05:50:34 18° 186° (S) 05:52:42 437.305
AO-7 04 Sep 05:51:29 05:59:49 73° 106° (ESE) 06:08:05 29.400- 29.500
PHONESAT 2.4 04 Sep 06:06:11 06:08:25 16° 165° (SSE) 06:10:40 2401.200-2431.200
JAS-2 04 Sep 06:08:08 06:14:23 34° 300° (WNW) 06:19:56 435.910
